Terminal Aerodrome Forecast
Issued by NWS Memphis, TN

Home | Current Version | Previous Version | Text Only | Print | Product List | Glossary On
Versions: 1 2 3 4 5 6 7 8 9 10 11 12 13 14 15 16 17 18 19 20 21 22 23 24 25 26 27 28 29 30 31 32 33 34 35 36 37 38 39 40 41 42 43 44 45 46 47 48
000
FTUS44 KMEG 262337
TAFMEM
TAF
KMEM 262337Z 2700/2806 13011KT 6SM -SHRA SCT020 OVC030
     FM270300 13010KT P6SM VCSH SCT016 OVC020
     FM270900 15006KT 6SM -SHRA SCT015 OVC020
     FM272300 14005KT 6SM -SHRA VCTS SCT030CB BKN090=

USA.gov is the U.S. government's official web portal to all federal, state and local government web resources and services.